Location: Ballingbuur
(53.0000°N, 5.7667°E)
Time: 21:07:13
(UTC+00:00)

Cosmos 1470 Rocket - Pass Details

Date: 29 November 2020
Orbit: 604 x 633 km, 82.5° (Epoch: 25 January)

Event Time Altitude Azimuth Distance (km) Brightness Sun altitude
Rises 06:28:09 0° 178° (S) 2,895 7.4 -8.2°
Reaches altitude 10° 06:30:24 10° 174° (S) 1,989 6.6 -7.9°
Maximum altitude 06:34:43 58° 96° (E) 724 4.3 -7.3°
Drops below altitude 10° 06:39:02 10° 18° (NNE) 1,987 6.1 -6.7°
Sets 06:41:17 0° 14° (NNE) 2,893 6.9 -6.4°
